Location: Boulder Knolls Observatory
(33.2250°N, 117.1147°W)
Time: 02:00:23
(UTC-08:00)

Tiangong 2 - Visible Passes

Search period start: 20 February 2018 00:00
Search period end: 02 March 2018 00:00
Orbit: 384 x 388 km, 42.8° (Epoch: 19 February)

Date Brightness Start Highest point End Pass type
(mag) Time Alt. Az. Time Alt. Az. Time Alt. Az.
20 Feb 2.4 18:29:52 10° NW 18:32:37 26° NNE 18:33:56 20° ENE visible
21 Feb 1.1 19:07:25 10° WNW 19:10:21 72° NNW 19:10:21 72° NNW visible
22 Feb 1.6 18:08:31 10° NW 18:11:34 42° NNE 18:14:35 10° E visible
22 Feb 4.0 19:45:39 10° W 19:46:52 17° WSW 19:46:52 17° WSW visible
23 Feb 1.9 18:46:17 10° WNW 18:49:21 47° SW 18:51:15 20° SSE visible
24 Feb 4.1 19:25:52 10° WSW 19:26:48 11° SW 19:27:45 10° SSW visible
25 Feb 3.5 18:25:27 10° W 18:27:59 22° SW 18:30:32 10° SSE visible
27 Feb 4.4 18:05:46 10° WSW 18:06:31 11° SW 18:07:17 10° SSW visible
